Location: Newark
(44.9486°N, 4.8961°E)
Time: 08:17:18
(UTC+00:00)

ISS - Pass Details

Date: 31 July 2019
Orbit: 410 x 421 km, 51.6° (Epoch: 26 August)

Event Time Altitude Azimuth Distance (km) Brightness Sun altitude
Rises 19:49:15 0° 299° (WNW) 2,376 2.6 -7.0°
Reaches altitude 10° 19:51:27 10° 308° (NW) 1,509 0.9 -7.3°
Maximum altitude 19:54:39 38° 18° (NNE) 653 -2.6 -7.8°
Drops below altitude 10° 19:57:51 10° 89° (E) 1,499 -1.4 -8.2°
Enters shadow 19:58:20 - 92° (E) 1,685 -1.2 -8.3°
